Location: Columbia
(38.9520°N, 92.3340°W)
Time: 14:04:42
(UTC-05:00)

Cosmos 1603 - Visible Passes

Search period start: 25 September 2016 00:00
Search period end: 05 October 2016 00:00
Orbit: 829 x 861 km, 71.0° (Epoch: 24 September)

Date Brightness Start Highest point End Pass type
(mag) Time Alt. Az. Time Alt. Az. Time Alt. Az.
25 Sep 5.7 05:48:35 10° N 05:53:37 31° ENE 05:58:36 10° ESE visible
25 Sep 3.6 20:38:31 10° SSW 20:44:13 76° ESE 20:49:59 10° NNE visible
25 Sep 6.3 22:25:20 10° W 22:28:59 17° NW 22:32:40 10° N visible
26 Sep 5.7 05:34:42 10° N 05:39:42 30° ENE 05:44:37 10° ESE visible
26 Sep 3.6 20:24:37 10° SSW 20:30:19 73° ESE 20:36:04 10° NNE visible
26 Sep 6.3 22:11:18 10° W 22:15:03 17° NW 22:18:48 10° N visible
27 Sep 5.7 05:20:50 10° N 05:25:46 29° ENE 05:30:38 10° ESE visible
27 Sep 3.6 20:10:43 10° SSW 20:16:24 71° ESE 20:22:08 10° NNE visible
27 Sep 6.3 21:57:17 10° W 22:01:06 18° NW 22:04:57 10° N visible
28 Sep 5.7 05:06:57 10° N 05:11:50 28° ENE 05:16:39 10° ESE visible
28 Sep 3.7 19:56:49 10° S 20:02:29 69° ESE 20:08:13 10° NNE visible
28 Sep 6.2 21:43:14 10° W 21:47:10 19° NW 21:51:07 10° N visible
29 Sep 5.7 04:53:04 10° N 04:57:54 27° ENE 05:02:40 10° ESE visible
29 Sep 4.1 06:36:48 10° NW 06:42:10 42° WSW 06:47:27 10° S visible
29 Sep 3.7 19:42:55 10° S 19:48:35 66° ESE 19:54:18 10° NNE visible
29 Sep 6.2 21:29:13 10° W 21:33:13 19° NW 21:37:15 10° N visible
30 Sep 5.8 04:39:11 10° N 04:43:58 26° ENE 04:48:40 10° ESE visible
30 Sep 4.0 06:22:51 10° NW 06:28:15 44° WSW 06:33:34 10° S visible
30 Sep 3.7 19:29:02 10° S 19:34:40 64° ESE 19:40:22 10° NNE visible
30 Sep 6.2 21:15:12 10° W 21:19:17 20° NW 21:23:24 10° N visible
01 Oct 5.8 04:25:19 10° N 04:30:02 26° NE 04:34:42 10° ESE visible
01 Oct 4.0 06:08:56 10° NW 06:14:21 45° WSW 06:19:42 10° S visible
01 Oct 3.8 19:15:08 10° S 19:20:46 62° ESE 19:26:26 10° NNE visible
01 Oct 6.2 21:01:11 10° W 21:05:21 20° NW 21:09:32 10° N visible
02 Oct 5.8 04:11:27 10° N 04:16:06 25° NE 04:20:41 10° ESE visible
02 Oct 3.9 05:55:00 10° NW 06:00:26 47° WSW 06:05:49 10° S visible
02 Oct 6.2 20:47:11 10° WSW 20:51:24 21° NW 20:55:40 10° N visible
03 Oct 5.8 03:57:34 10° N 04:02:09 24° NE 04:06:42 10° ESE visible
03 Oct 3.9 05:41:03 10° NW 05:46:32 48° WSW 05:51:56 10° S visible
03 Oct 6.2 20:33:10 10° WSW 20:37:28 21° NW 20:41:48 10° N visible
04 Oct 5.8 03:43:42 10° N 03:48:14 23° NE 03:52:42 10° ESE visible
04 Oct 3.8 05:27:07 10° NNW 05:32:37 50° WSW 05:38:03 10° S visible
04 Oct 6.1 20:19:10 10° WSW 20:23:32 22° NW 20:27:56 10° N visible
